This demonstration page uses our WeatherBlox Daily Observations layout. Learn more.

39.92423, -83.80882

Hourly Observations for August 22, 2018

Temp ( °F °C ) Dew Point ( °F °C ) Humidity (%) Winds ( mph kmh ) Pressure ( in mb ) Visibility ( mi km ) Precip ( " mm )
12:56 am 00:56 Cloudy 69 20.6 69 20.6 100 100 WNW 8 13 29.92 1013 9 14.48406 0 0.0254
1:56 am 01:56 Cloudy 68 20 68 20 100 100 NW 8 13 29.93 1014 10 16.0934 0 0
2:36 am 02:36 Mostly Cloudy 66 19 66 19 100 100 NW 8 13 29.91 1013 9 14.48406 0 0
2:56 am 02:56 Cloudy 66 18.9 66 18.9 100 100 NW 6 9 29.93 1014 8 12.87472 0 0
3:10 am 03:10 Mostly Cloudy 66 19 64 18 94 94 NW 5 7 29.91 1013 7 11.26538 0 0
3:45 am 03:45 Partly Cloudy with Mist and Fog 64 18 64 18 100 100 WNW 6 9 29.91 1013 5 8.0467 0 0
3:56 am 03:56 Mostly Cloudy with Mist and Fog 65 18.3 65 18.3 100 100 WNW 5 7 29.94 1014 5 8.0467 0 0
4:10 am 04:10 Cloudy with Mist and Fog 64 18 64 18 100 100 WNW 6 9 29.91 1013 4 6.43736 0 0
4:56 am 04:56 Cloudy with Mist and Fog 64 17.8 64 17.8 100 100 WNW 9 15 29.95 1014 4 6.43736 0 0
5:30 am 05:30 Partly Cloudy with Mist and Fog 63 17 63 17 100 100 WNW 9 15 29.97 1015 5 8.0467 0 0
5:56 am 05:56 Mostly Clear with Mist and Fog 63 17.2 63 17.2 100 100 WNW 10 17 29.96 1015 6 9.65604 0 0
6:56 am 06:56 Sunny with Mist and Fog 62 16.7 62 16.7 100 100 WNW 9 15 29.99 1016 4 6.43736 0 0
7:48 am 07:48 Partly Cloudy with Mist and Fog 63 17 63 17 100 100 NW 9 15 30 1016 5 8.0467 0 0
7:56 am 07:56 Partly Cloudy with Mist and Fog 62 16.7 62 16.7 100 100 NW 9 15 30.01 1016 6 9.65604 0 0
8:56 am 08:56 Mostly Cloudy 64 17.8 62 16.7 93 93 NNW 13 20 30.02 1017 9 14.48406 0 0
9:44 am 09:44 Partly Cloudy 64 18 59 15 83 83 NW 13 20 30 1016 10 16.0934 0.01 0.254
9:56 am 09:56 Mostly Sunny 66 18.9 57 13.9 73 73 NW 15 24 30.04 1017 10 16.0934 0.01 0.254
10:56 am 10:56 Sunny 67 19.4 57 13.9 71 71 NW 16 26 30.05 1018 10 16.0934 0 0
11:56 am 11:56 Sunny 69 20.6 56 13.3 63 63 WNW 17 28 30.05 1018 10 16.0934 0 0
12:56 pm 12:56 Sunny 71 21.7 55 12.8 57 57 NW 14 22 30.05 1018 10 16.0934 0 0
1:56 pm 13:56 Mostly Sunny 72 22.2 57 13.9 59 59 NW 15 24 30.06 1018 10 16.0934 0 0
2:56 pm 14:56 Mostly Cloudy 72 22.2 56 13.3 57 57 WNW 15 24 30.06 1018 10 16.0934 0 0
3:56 pm 15:56 Mostly Cloudy 72 22.2 56 13.3 57 57 NNW 14 22 30.06 1018 10 16.0934 0 0
4:56 pm 16:56 Cloudy 73 22.8 55 12.8 53 53 NW 15 24 30.06 1018 10 16.0934 0 0
5:56 pm 17:56 Mostly Sunny 72 22.2 54 12.2 53 53 NNW 13 20 30.06 1018 10 16.0934 0 0
6:56 pm 18:56 Sunny 70 21.1 53 11.7 55 55 NNW 12 19 30.07 1018 10 16.0934 0 0
7:56 pm 19:56 Sunny 67 19.4 55 12.8 66 66 NNW 5 7 30.08 1019 10 16.0934 0 0
8:56 pm 20:56 Clear 62 16.7 56 13.3 80 80 NW 3 6 30.09 1019 10 16.0934 0 0
9:56 pm 21:56 Clear 57 13.9 56 13.3 96 96 Calm 30.12 1020 10 16.0934 0 0
10:56 pm 22:56 Clear 56 13.3 56 13.3 100 100 SW 5 7 30.12 1020 10 16.0934 0 0
11:56 pm 23:56 Clear 56 13.3 55 12.8 97 97 W 5 7 30.12 1020 10 16.0934 0 0

Powered by AerisWeather